This is the latest recevied weather packets stored in our database for station/object IR9AK-10. If no packets are shown the sender has not sent any weather packets the latest 10 day(s).
| Time | Temp. | Humidity | Pressure | Rain* | Wind** | Luminosity | Snow |
|---|---|---|---|---|---|---|---|
| 1778172042 | 23.89° C | 48% | 1053.5 hPa | - | - | - | - |
| 1778171443 | 23.89° C | 47% | 1053.1 hPa | - | - | - | - |
| 1778170844 | 23.89° C | 47% | 1053.2 hPa | - | - | - | - |
| 1778170245 | 23.89° C | 47% | 1053.2 hPa | - | - | - | - |
| 1778169645 | 24.44° C | 46% | 1053 hPa | - | - | - | - |
| 1778169046 | 24.44° C | 46% | 1052.8 hPa | - | - | - | - |
| 1778168447 | 25° C | 45% | 1053 hPa | - | - | - | - |
| 1778167848 | 25.56° C | 44% | 1053 hPa | - | - | - | - |
| 1778167250 | 25.56° C | 43% | 1052.9 hPa | - | - | - | - |
| 1778166650 | 26.11° C | 43% | 1052.8 hPa | - | - | - | - |
| 1778166050 | 26.11° C | 42% | 1052.9 hPa | - | - | - | - |
| 1778165452 | 26.11° C | 42% | 1052.8 hPa | - | - | - | - |
| 1778164854 | 26.67° C | 41% | 1052.7 hPa | - | - | - | - |
| 1778164255 | 26.67° C | 41% | 1052.9 hPa | - | - | - | - |
| 1778163657 | 26.11° C | 42% | 1052.9 hPa | - | - | - | - |
| 1778163057 | 25.56° C | 43% | 1053.2 hPa | - | - | - | - |
| 1778162457 | 25.56° C | 44% | 1053.2 hPa | - | - | - | - |
| 1778161859 | 25° C | 44% | 1053.5 hPa | - | - | - | - |
| 1778161259 | 25° C | 44% | 1053.3 hPa | - | - | - | - |
| 1778160659 | 25° C | 43% | 1053.2 hPa | - | - | - | - |
| 1778160060 | 26.11° C | 43% | 1053.5 hPa | - | - | - | - |
| 1778159462 | 26.11° C | 42% | 1053.7 hPa | - | - | - | - |
| 1778158862 | 25.56° C | 43% | 1053.6 hPa | - | - | - | - |
| 1778158263 | 25.56° C | 43% | 1053.7 hPa | - | - | - | - |
| 1778157664 | 25° C | 43% | 1053.7 hPa | - | - | - | - |
* Rain since midnight (hover to see other rain measurements)
** Current wind speed in m/s (hover to see current wind gust speed)